Wind_Speed
17 12 16 19 21 21 21 19 18 17 20 20 21 14 15 15 13 8 14 20 22 24 21 28 27 29 31 28 29 23 24 31 26 19 16 14 13 12 15 14 13 9 6 5
13 20 18 19 21 21 23 21 20 15 19 20 17 15 17 10 5 17 25 22 22 23 26 24 26 28 31 30 31 27 25 30 28 19 19 16 14 14 12 18 17 9 7 7
20 15 22 21 19 20 19 21 19 17 12 20 18 17 19 13 15 14 30 23 23 23 25 23 25 29 30 31 32 33 27 29 27 21 21 17 16 17 18 15 14 11 11 8
19 20 22 20 22 19 20 19 20 20 15 14 14 14 21 25 25 19 13 24 24 23 23 23 26 27 31 33 33 34 30 28 30 26 22 19 16 14 17 17 15 17 13 12
15 20 19 23 16 20 20 19 16 18 18 19 22 16 17 23 21 10 17 20 25 25 25 26 25 33 33 33 34 33 34 29 30 33 23 24 21 18 17 19 21 21 17 13
15 18 16 18 20 17 16 20 18 16 16 16 21 19 15 16 21 21 14 23 22 26 24 25 32 34 31 33 34 34 36 34 31 37 28 27 27 19 16 19 24 19 20 17
16 18 18 17 14 20 19 15 12 15 15 17 21 19 15 16 24 27 26 26 21 25 25 22 25 27 34 36 38 38 40 37 36 35 34 26 32 30 20 21 20 21 19 23
15 13 20 18 20 17 22 20 15 19 15 18 21 21 19 21 23 29 28 19 12 24 26 27 25 30 36 37 40 40 42 40 39 35 38 33 30 32 25 15 19 18 22 22
11 18 20 8 19 17 22 20 22 24 22 17 17 17 25 20 23 20 25 24 12 30 26 28 27 32 36 37 39 41 40 41 41 40 37 38 33 29 26 21 21 22 20 13
10 17 20 18 12 13 18 20 20 16 22 23 19 23 15 21 19 20 20 25 26 19 27 26 23 29 36 39 38 38 38 41 40 41 36 36 37 37 29 30 23 22 20 19
10 13 22 20 17 18 16 17 21 15 16 17 17 16 17 21 23 19 21 19 25 25 18 22 22 29 33 37 38 39 37 39 40 39 39 36 36 35 39 28 33 29 28 16
10 12 16 19 23 15 16 18 22 14 19 16 18 17 12 17 23 19 15 17 16 26 26 7 6 27 30 33 37 38 40 38 41 41 39 39 36 37 36 37 32 30 31 29
11 12 11 17 18 22 15 23 23 22 21 19 16 18 18 13 7 18 16 15 13 12 18 11 7 23 28 35 35 37 39 41 38 39 38 37 38 36 38 39 35 35 32 27
11 13 16 15 15 15 14 20 20 24 16 18 19 19 20 12 21 10 8 8 11 9 15 24 27 34 40 36 37 35 37 39 39 39 38 38 40 40 39 36 40 33 35 34
8 16 19 22 27 20 21 19 15 22 21 21 19 21 15 20 18 19 20 4 9 6 9 10 8 17 18 23 34 35 34 38 38 37 39 40 39 39 38 37 36 41 34 34
8 10 18 20 22 21 23 21 20 22 29 22 23 20 17 17 19 18 17 24 11 15 16 16 13 10 21 36 32 36 36 37 37 38 39 37 37 38 37 37 37 37 38 36
6 5 8 17 18 20 22 24 19 18 18 13 18 20 17 8 14 13 15 15 18 12 13 15 14 12 13 9 16 29 34 34 37 34 35 37 38 38 40 37 36 36 38 36
10 6 1 8 11 13 16 18 20 21 20 19 21 20 20 16 17 13 10 16 17 9 10 11 13 16 19 19 24 32 32 34 32 35 34 37 38 39 38 38 38 37 36 37
16 12 5 4 10 16 17 14 7 12 19 16 14 15 19 21 16 19 12 18 19 13 4 9 15 20 21 23 26 18 28 35 34 31 36 37 39 37 37 39 38 37 35 34
14 13 8 9 8 9 15 10 10 11 10 8 12 15 18 20 14 12 2 13 18 14 16 17 17 19 20 21 25 25 17 28 33 37 34 32 36 35 37 38 38 37 36 36
7 7 14 11 12 12 12 0 9 9 6 10 11 13 18 16 16 11 12 9 7 15 15 16 15 15 18 18 31 28 23 24 33 33 31 35 33 38 37 35 34 35 35 33
5 6 5 9 13 15 13 5 11 10 15 14 14 14 16 21 24 17 8 8 8 10 15 19 14 17 19 25 33 25 23 21 26 31 35 31 34 33 33 35 34 34 35 34
2 4 4 5 4 14 14 16 18 15 17 20 20 15 15 18 19 16 11 9 8 10 14 16 17 14 18 22 26 24 15 23 24 28 32 30 33 33 32 35 33 32 33 31
3 5 3 9 6 18 18 18 16 15 17 19 21 16 14 17 17 15 10 8 8 11 12 15 16 14 17 22 25 24 25 18 29 27 30 28 29 31 33 30 33 32 31 30
3 9 5 5 9 18 8 17 18 21 23 22 22 14 13 13 10 9 9 10 11 11 11 11 13 15 16 20 22 23 27 19 11 22 25 25 27 32 30 31 31 32 32 33
2 2 2 3 10 6 11 14 17 16 24 16 16 13 14 5 3 8 6 6 7 9 11 10 10 13 16 19 21 24 24 23 14 11 18 21 24 26 27 30 25 33 32 33
Wind_Direction
206 213 217 226 231 238 265 273 234 239 231 234 206 163 149 171 213 224 229 177 184 175 182 177 182 170 164 170 165 178 183 166 174 172 181 208 174 203 189 199 165 163 174 168
207 227 227 232 237 232 248 266 274 260 246 219 210 190 160 138 343 256 258 173 191 183 172 179 185 177 169 171 167 180 181 167 173 179 191 197 188 206 201 181 158 150 173 175
227 225 217 238 239 244 232 249 260 270 275 255 224 203 156 189 183 246 257 173 188 184 178 172 183 183 174 172 169 176 184 171 173 185 195 205 200 206 181 189 169 173 189 196
236 233 261 209 239 240 244 243 250 268 269 261 213 252 190 185 183 204 230 173 182 189 183 178 180 186 184 175 173 175 184 179 180 188 193 202 203 207 191 197 185 175 193 193
249 238 233 253 239 231 253 255 256 250 265 267 262 223 244 189 185 153 250 232 183 183 187 185 182 190 185 176 176 177 181 185 186 193 195 197 210 214 210 189 198 176 185 199
273 280 254 244 254 248 250 250 264 262 241 249 248 254 232 216 179 175 168 253 193 180 189 183 185 183 189 183 179 179 182 188 189 195 197 196 207 211 209 205 169 167 182 195
236 246 262 264 258 241 230 242 232 239 241 240 234 243 242 254 177 177 189 216 210 178 180 189 180 181 186 185 183 183 182 187 190 194 202 198 203 215 214 209 173 184 186 188
285 253 213 223 237 246 232 222 230 229 233 239 231 238 230 247 264 190 184 199 202 249 179 181 181 183 184 189 185 186 183 186 189 193 201 198 201 216 220 214 205 191 199 203
279 261 276 284 216 219 247 231 234 255 257 249 249 219 243 240 241 246 172 166 190 258 178 180 176 181 182 187 189 189 186 187 189 194 197 201 197 206 213 209 206 218 222 230
306 307 292 294 220 243 231 254 228 231 250 258 255 249 234 215 229 235 239 186 174 192 256 175 181 178 182 187 189 191 189 188 191 193 197 200 199 200 204 214 211 215 220 233
293 286 281 292 276 217 221 245 257 271 237 253 258 259 259 207 204 208 227 240 178 191 231 179 172 182 183 186 188 190 192 187 191 193 198 201 204 205 203 206 216 214 217 221
279 288 285 269 272 262 247 258 242 246 240 265 250 253 24 341 187 194 216 229 217 183 205 74 345 176 181 183 187 190 192 192 192 195 197 201 203 204 206 207 209 210 214 223
313 263 271 259 272 269 231 234 254 249 250 251 234 246 266 331 213 184 199 239 230 213 134 108 30 265 183 181 186 190 193 197 194 195 198 200 204 204 207 208 205 207 208 209
317 274 275 276 257 341 290 239 251 249 243 243 249 244 243 14 0 25 7 221 242 225 183 171 177 213 228 179 182 189 193 194 196 194 199 202 203 205 207 208 207 206 209 211
253 263 266 273 286 294 285 285 286 257 250 248 244 244 254 24 348 330 358 337 358 322 222 227 266 169 191 178 182 184 192 192 194 197 197 202 205 205 206 207 206 208 207 208
302 283 272 259 271 286 274 264 263 278 242 248 260 285 299 75 309 299 346 347 35 9 6 10 5 17 183 188 185 187 189 190 194 196 199 199 201 203 206 207 206 204 209 211
247 261 281 260 267 282 260 254 245 261 272 272 260 269 292 316 275 322 316 330 323 352 354 353 348 341 352 189 189 193 193 190 193 196 197 197 198 202 204 206 208 207 206 208
211 216 234 273 294 251 262 259 262 251 261 259 265 274 289 291 288 276 284 297 302 314 325 346 335 332 326 320 203 187 189 192 194 198 196 197 198 199 200 204 208 210 208 208
240 205 230 235 264 271 293 246 337 327 242 239 285 307 314 306 281 259 272 266 292 301 279 308 308 319 327 319 313 319 188 190 197 201 201 198 198 198 198 201 206 208 209 210
269 265 212 228 241 266 260 50 5 346 266 284 356 323 324 331 311 277 285 35 354 349 349 333 315 302 301 301 295 285 266 188 198 205 205 201 198 199 199 201 203 205 209 212
304 268 239 238 249 252 269 29 333 259 290 351 351 344 336 332 319 358 39 72 336 319 320 303 298 292 276 318 334 270 262 221 201 201 205 203 200 200 200 199 202 204 208 211
307 314 247 228 244 254 9 189 223 348 337 321 330 329 330 325 322 354 12 17 10 339 339 341 350 352 352 342 329 246 246 254 212 197 201 201 204 198 199 197 200 204 207 210
322 7 309 297 309 332 352 332 326 328 315 306 309 311 315 315 316 322 343 4 357 356 340 344 345 344 352 347 339 346 293 244 224 194 196 203 200 200 201 198 201 203 207 209
295 13 290 326 348 335 323 312 311 322 302 289 285 287 294 299 305 317 329 0 353 3 347 349 344 347 347 347 343 344 340 327 209 192 189 197 194 197 203 203 202 203 205 208
275 307 295 269 300 322 333 331 328 327 293 272 269 266 276 269 297 304 321 352 348 349 355 0 1 358 352 347 343 346 349 356 216 184 188 192 193 194 200 209 203 204 208 208
233 265 316 298 312 288 295 312 322 317 324 238 224 251 257 225 278 301 303 355 342 339 346 346 357 359 357 354 349 349 358 8 13 200 195 195 200 196 200 203 206 205 210 215
Height
736 746 752 743 736 728 722 720 720 707 692 702 710 726 745 747 748 755 742 745 750 752 761 765 771 778 787 796 803 810 815 819 826 831 834 835 836 839 841 843 845 848 850 852
738 748 732 725 722 728 727 729 720 696 689 695 702 716 743 740 742 746 752 736 743 746 753 761 768 774 782 791 799 808 813 818 823 829 832 834 836 838 839 842 844 847 850 851
740 726 720 726 726 730 727 733 724 716 694 686 695 714 750 745 738 750 750 722 734 738 745 753 762 769 777 786 795 803 810 815 821 827 831 833 835 837 839 841 843 846 849 851
726 717 715 722 728 723 737 712 717 716 719 732 694 743 717 729 723 743 725 715 726 732 739 747 757 764 771 780 790 798 806 812 817 824 828 829 831 834 836 838 841 843 847 849
727 721 720 722 719 716 727 710 713 718 726 724 714 726 710 695 718 732 743 724 713 723 730 738 747 756 765 775 784 793 802 808 814 819 824 827 829 830 832 835 838 841 845 848
720 702 705 712 708 710 709 719 720 719 726 746 723 719 712 702 712 727 734 734 703 711 723 729 740 752 761 769 779 787 796 803 809 815 819 823 825 827 830 832 834 839 843 846
727 723 709 704 718 709 715 730 759 763 751 745 714 720 707 679 681 700 705 702 697 696 710 721 730 741 752 760 768 777 786 795 802 809 814 818 822 824 827 829 833 836 839 842
741 736 714 706 715 723 720 728 749 772 753 737 708 719 702 677 664 671 683 697 696 698 692 704 718 730 740 750 759 768 776 785 794 802 808 813 818 821 824 827 829 833 835 837
742 734 700 695 701 711 723 727 715 734 716 724 706 695 680 669 667 664 676 685 700 709 684 695 701 718 730 741 750 759 768 777 786 793 801 807 812 817 820 824 826 829 831 833
748 759 719 706 700 704 715 708 731 726 756 749 716 703 694 681 673 665 663 669 682 687 688 685 697 706 719 731 742 754 762 770 779 788 796 801 805 810 816 820 823 826 829 831
754 758 745 723 717 721 723 727 717 716 719 740 739 708 654 657 656 659 657 655 674 680 698 674 682 700 713 724 735 745 755 764 772 779 788 795 800 806 810 815 819 822 826 828
750 758 759 742 714 702 712 718 717 730 740 724 713 701 643 644 636 645 651 651 651 677 682 677 691 690 703 716 728 735 745 754 762 771 779 786 793 800 804 808 812 818 821 824
763 762 767 758 740 715 719 718 713 708 710 722 723 708 653 651 638 641 650 650 650 653 678 677 692 708 693 702 716 726 735 744 754 764 772 779 786 792 796 801 806 811 816 819
777 775 773 766 743 738 730 719 711 711 719 717 708 697 674 675 677 659 656 651 650 652 660 686 687 691 701 690 701 715 726 735 745 754 763 770 775 781 788 794 800 804 809 813
779 783 773 762 750 745 742 731 724 720 711 717 704 702 688 702 702 688 675 659 659 657 658 661 665 671 693 689 694 703 716 726 734 744 752 758 767 775 782 788 793 798 802 806
782 789 778 772 763 759 751 735 732 725 710 707 703 709 692 711 701 693 687 688 675 675 672 671 670 671 680 675 688 696 705 715 725 734 741 752 761 769 775 781 786 791 796 800
790 794 791 786 764 760 758 742 731 727 716 713 723 711 702 712 711 699 703 705 695 686 683 683 680 678 678 688 688 696 701 709 717 724 734 743 751 759 766 774 780 784 788 793
783 797 804 794 783 789 747 725 722 727 723 719 717 714 711 713 708 702 701 705 701 694 692 691 690 687 683 680 685 686 697 703 710 717 725 734 741 748 757 766 771 776 781 785
762 775 795 799 788 770 750 731 738 735 724 715 718 718 719 710 704 702 700 703 698 692 693 695 694 691 689 687 685 691 690 695 704 710 716 723 732 740 748 755 762 769 775 779
766 765 783 781 789 782 749 745 738 740 748 726 736 736 733 726 731 707 697 699 705 701 701 701 700 698 695 692 690 690 691 689 695 701 709 719 727 734 740 746 753 761 767 770
783 777 781 790 780 766 747 755 750 765 754 744 746 749 744 741 734 711 707 705 715 713 707 704 701 701 699 699 697 689 689 687 687 697 706 713 719 725 732 741 749 754 759 764
797 787 778 778 780 774 750 755 761 757 754 751 752 751 752 749 732 720 717 715 714 716 714 708 703 705 703 703 699 683 682 686 687 691 698 704 712 719 726 733 740 746 752 756
800 808 806 792 770 764 768 771 765 767 767 756 753 755 755 754 743 732 725 719 719 719 720 716 712 710 710 708 702 689 682 682 683 685 692 698 705 712 719 725 732 737 743 747
809 813 809 801 771 781 781 775 773 771 768 762 757 756 759 754 746 738 728 729 729 725 724 719 718 715 713 710 706 697 686 676 675 680 685 692 699 707 713 718 724 729 733 738
822 816 811 803 794 790 779 785 779 765 765 759 757 755 757 754 747 740 731 726 727 727 724 723 723 721 719 715 709 701 690 678 673 677 683 688 694 700 707 712 715 719 723 727
815 817 813 805 806 802 796 789 783 772 752 738 745 751 751 748 747 745 739 736 737 734 730 729 727 725 721 717 712 705 695 687 681 679 682 685 690 695 700 706 709 712 716 720